Home > Weather > Olpe > Past weeks

Flag for Germany Past Weather in Olpe, North Rhine-Westphalia, Germany — Yesterday and Last 2 Weeks

Now
64 °F

Broken clouds.


Feels Like: 64 °F
Forecast: 50 / 65 °F
Wind: 15 mph from West

Location: Hessen

Current Time: Jul 30, 2016 at 1:21:15 PM

Latest Report: Jul 30, 2016 at 12:50 PM


Visibility: N/A

Pressure: 29.95 "Hg

Humidity: 68%

Dew Point: 54 °F

Location of OlpeLocation

Past Weather in Olpe — Graph

°F

Olpe Temperature Yesterday

Maximum temperature yesterday: 66 °F (at 2:50 PM)
Minimum temperature yesterday: 57 °F (at 7:50 AM)
Average temperature yesterday: 62 °F

High & Low Weather Summary for the Past Weeks

 TemperatureHumidityPressure
High84 °F (Jul 20, 2:50 PM)100% (Jul 23, 7:50 AM)30.30 "Hg (Jul 23, 7:50 AM)
Low54 °F (Jul 15, 11:20 AM)40% (Jul 20, 3:50 PM)29.95 "Hg (Jul 29, 2:20 PM)
Average67 °F74%30.13 "Hg
* Reported Jul 15 11:20 AM — Jul 30 11:50 AM, Olpe, Weather by CustomWeather, © 2016

Note: Actual official high and low records may vary slightly from our data, if they occured in-between our weather recording intervals... More about our weather records

Advertising

Olpe Weather History for the Previous 24 Hours

Scroll right to see more
 ConditionsComfort  
Time TempWeatherWind HumidityBarometerVisibility
11:50 AM
Sat, Jul 30
63 °FBroken clouds.12 mph77%29.95 "HgN/A
11:20 AM63 °FBroken clouds.15 mph73%29.95 "HgN/A
10:50 AM64 °FBroken clouds.13 mph73%29.95 "HgN/A
10:20 AM63 °FPartly sunny.9 mph83%29.95 "HgN/A
9:50 AM59 °FPartly sunny.8 mph94%29.95 "HgN/A
9:20 AM59 °FBroken clouds.9 mph88%29.95 "HgN/A
8:50 AM59 °FBroken clouds.9 mph100%29.95 "Hg4 mi
8:20 AM59 °FFog.10 mph100%29.95 "Hg1 mi
7:50 AM59 °FFog.9 mph100%29.95 "Hg1 mi
8:50 PM
Fri, Jul 29
63 °FPassing clouds.5 mph100%29.95 "HgN/A
8:20 PM64 °FPassing clouds.6 mph94%29.95 "HgN/A
7:50 PM64 °FPassing clouds.8 mph94%29.95 "HgN/A
7:20 PM64 °FPassing clouds.8 mph88%29.95 "HgN/A
6:50 PM64 °FPassing clouds.9 mph88%29.95 "HgN/A
6:20 PM64 °FPassing clouds.13 mph88%29.95 "HgN/A
5:50 PM64 °FScattered clouds.15 mph88%29.95 "HgN/A
5:20 PM63 °FScattered clouds.8 mph100%29.95 "HgN/A
4:50 PM61 °FSprinkles. Partly sunny.13 mph100%29.95 "HgN/A
4:20 PM61 °FRain showers. Broken clouds.12 mph100%29.95 "Hg3 mi
3:50 PM66 °FBroken clouds.12 mph83%29.95 "HgN/A
3:20 PM66 °FScattered clouds.12 mph83%29.95 "HgN/A
2:50 PM66 °FBroken clouds.10 mph83%29.95 "HgN/A
2:20 PM64 °FBroken clouds.12 mph88%29.95 "HgN/A
1:50 PM64 °FRain showers. Partly sunny.9 mph100%29.98 "HgN/A
1:20 PM61 °FRain showers. Partly sunny.9 mph100%29.98 "Hg4 mi
Weather by CustomWeather, © 2016

See weather overviewHow to use our weather pages